TITAN 3C TRANSTAGE DEB, 43285

Orbit data source: Space-Track

TITAN 3C TRANSTAGE DEB, 43285 is space debris originally from a launch on Sun, 09 Feb 1969 UTC launched from the Air Force Eastern Test Range (AFETR). Debris objects in space refer to the collection of defunct objects orbiting the Earth. Examples of debris include non-operational satellites, rocket bodies, and fragments generated from explosions, collisions, or faulty payload assembly.

Not visible in the next 10 days
TITAN 3C TRANSTAGE DEB details
Identifier
43285, 1969-013F
Orbit
Active
Last TLE update8 months ago
Origin
Flag of USUSAF SMC (US)
ManufacturerMartin Marietta
MissionSpacecraft
Bus & MotorUnknown
MassUnknown
Launch date (UTC)
1969-02-09 (56 years ago)
Launch vehicleUnknown
Launch site
Air Force Eastern Test Range (AFETR)
Object type
Payload
Rocket body
Debris
Shape & HBRUnknown
Radar Cross SectionRCS unknown

Expand to show TLE details & history

TLE from 8 months ago
0 TITAN 3C TRANSTAGE DEB
1 43285U 69013F   24095.09498220 -.00000149  00000-0  00000-0 0  9990
2 43285   1.0197 245.9422 0270942 336.7445  21.0578  0.93368463 20597
Epoch: 2024-04-04T02:16Z
Definitive object data (Epoch: 2024-04-04T02:16:46.462Z)
Latitude-0.00002°
Longitude17.82882°
Altitude36,726.172 km
Speed3.079 km/s
True Right ascension16h 19m 40s
True Declination0° 00' 00"
Sunlit
Object was in daylight at TLE epoch
Visualization TLE readout
Latitude-0.16404°
Longitude-1.76852°
Altitude36,620.353 km
Speed3.086 km/s
Apparent Right ascension15h 18m 55s
Apparent Declination-5° 09' 18"
Sunlit
Object is in daylight
Visualization observer readout
Local Sidereal Time06:08:35
Azimuth59.048° ENE
Elevation-38.433°
Doppler factor1
Orbital elements
Apogee altitude39,039.238 km
Perigee altitude36,643.066 km
Semi-major axis44,219.289 km
Eccentricity0.0270942
Inclination1.0197°
RAAN245.9422°
Arg. of periapsis336.7445°
True anomaly22.20965°
Mean anomaly21.0578°
Eccentric anomaly21.63003°
Mean motion0.23341 °/min
BSTARUnknown
Orbital period1542.33 mins
Loading maneuver chart data...

TITAN 3C TRANSTAGE DEB Visibility forecast

Observer location: undefined°, undefined

TITAN 3C TRANSTAGE DEB is not visible in the next 10 days
Span
Click to sort rows by Start time (UTC) header in descending order
Start Az.
Max El. time (UTC)
Max El. Az.
Max El.
End time (UTC)
End Az.
|